Volver al catálogo

COSMOS 1275 DEB

ActivoPO
NORAD 13464·DEBRIS·🇷🇺 Russia

Lanzado Jun 4, 1981 desde Plesetsk Cosmodrome

Loading…

Próximos Pases (próximas 24 horas)

TLE

ActualizadoSource: Space-Track

Época: Sep 14, 2026, 04:13 UTC

1 13464U 81053FL  26257.17623191  .00003143  00000-0  91775-3 0  9990
2 13464  82.9074 333.7083 0025874 120.0929 268.1654 14.43648551269859

Sigue COSMOS 1275 DEB en tiempo real con AllMySat

Download on the App Store